TimeCDT,TemperatureF,Dew PointF,Humidity,Sea Level PressureIn,VisibilityMPH,Wind Direction,Wind SpeedMPH,Gust SpeedMPH,PrecipitationIn,Events,Conditions,WindDirDegrees,DateUTC
12:28 AM,66.2,62.6,88,30.01,9.0,NNW,12.7,-,0.00,Rain,Light Rain,330,2013-09-29 05:28:00
12:54 AM,64.0,62.1,93,30.00,10.0,NNW,10.4,-,0.01,,Overcast,340,2013-09-29 05:54:00
1:02 AM,64.4,62.6,94,30.01,10.0,NNW,13.8,-,N/A,,Overcast,330,2013-09-29 06:02:00
1:52 AM,60.8,59.0,94,30.03,10.0,NNW,9.2,-,0.00,Rain,Light Rain,340,2013-09-29 06:52:00
1:54 AM,62.1,59.0,90,30.02,10.0,North,9.2,-,0.00,Rain,Light Rain,350,2013-09-29 06:54:00
2:08 AM,60.8,57.2,88,30.04,10.0,North,8.1,-,0.00,,Overcast,350,2013-09-29 07:08:00
2:22 AM,60.8,57.2,88,30.04,10.0,North,10.4,-,0.00,,Overcast,350,2013-09-29 07:22:00
2:40 AM,60.8,57.2,88,30.04,10.0,NNW,9.2,-,0.00,,Overcast,340,2013-09-29 07:40:00
2:54 AM,60.1,55.9,86,30.03,10.0,NNW,6.9,-,0.00,,Overcast,340,2013-09-29 07:54:00
3:21 AM,60.8,55.4,82,30.04,10.0,NNW,8.1,-,0.00,,Overcast,340,2013-09-29 08:21:00
3:54 AM,60.1,55.9,86,30.03,10.0,North,4.6,-,0.00,,Overcast,350,2013-09-29 08:54:00
4:54 AM,60.1,55.9,86,30.03,10.0,North,6.9,-,N/A,,Overcast,350,2013-09-29 09:54:00
5:54 AM,59.0,55.0,87,30.05,10.0,NNW,5.8,-,N/A,,Overcast,330,2013-09-29 10:54:00
6:54 AM,57.0,54.0,89,30.06,10.0,NNW,5.8,-,N/A,,Partly Cloudy,340,2013-09-29 11:54:00
7:54 AM,57.9,54.0,87,30.06,10.0,North,4.6,-,N/A,,Clear,360,2013-09-29 12:54:00
8:54 AM,61.0,53.1,75,30.06,10.0,North,4.6,-,N/A,,Clear,10,2013-09-29 13:54:00
9:54 AM,64.0,53.1,67,30.07,10.0,NNE,9.2,-,N/A,,Clear,20,2013-09-29 14:54:00
10:54 AM,68.0,52.0,56,30.07,10.0,North,8.1,-,N/A,,Clear,360,2013-09-29 15:54:00
11:54 AM,70.0,51.1,51,30.06,10.0,NE,8.1,-,N/A,,Clear,50,2013-09-29 16:54:00
12:54 PM,71.1,48.9,45,30.04,10.0,Variable,6.9,-,N/A,,Clear,0,2013-09-29 17:54:00
1:54 PM,73.0,46.9,39,30.01,10.0,NE,6.9,-,N/A,,Clear,40,2013-09-29 18:54:00
2:54 PM,75.0,46.0,36,29.99,10.0,NE,10.4,-,N/A,,Clear,50,2013-09-29 19:54:00
3:54 PM,75.0,45.0,34,29.98,10.0,NNE,3.5,-,N/A,,Clear,30,2013-09-29 20:54:00
4:54 PM,75.0,46.0,36,29.97,10.0,NNE,5.8,-,N/A,,Clear,30,2013-09-29 21:54:00
5:54 PM,72.0,48.0,43,29.97,10.0,NNE,5.8,-,N/A,,Clear,20,2013-09-29 22:54:00
6:54 PM,64.9,53.1,65,29.97,10.0,NNE,3.5,-,N/A,,Clear,20,2013-09-29 23:54:00
7:54 PM,59.0,53.1,81,29.98,10.0,Calm,Calm,-,N/A,,Clear,0,2013-09-30 00:54:00
8:54 PM,59.0,54.0,83,29.98,9.0,Calm,Calm,-,N/A,,Clear,0,2013-09-30 01:54:00
9:54 PM,57.0,53.1,87,29.98,9.0,Calm,Calm,-,N/A,,Clear,0,2013-09-30 02:54:00
10:54 PM,55.0,52.0,89,29.98,10.0,Calm,Calm,-,N/A,,Clear,0,2013-09-30 03:54:00
11:54 PM,53.1,52.0,96,29.99,10.0,Calm,Calm,-,N/A,,Clear,0,2013-09-30 04:54:00